Location: Callanans Corners
(42.5326°N, 73.8846°W)
Time: 14:37:59
(UTC+00:00)

IRIDIUM 114 - Pass Details

Date: 06 October 2022
Orbit: 776 x 779 km, 86.4° (Epoch: 28 November)

Event Time Altitude Azimuth Distance (km) Brightness Sun altitude
Rises 23:09:59 0° 171° (S) 3,246 7.5 -8.5°
Reaches altitude 10° 23:12:20 10° 168° (SSE) 2,323 6.7 -8.9°
Maximum altitude 23:17:27 62° 89° (E) 874 4.3 -9.9°
Drops below altitude 10° 23:22:37 10° 10° (N) 2,341 6.7 -10.8°
Sets 23:25:00 0° 7° (N) 3,274 7.5 -11.3°
